Rochester, NY

11:01 PM EDT on March 27, 2017 (GMT -0400)
Greater Rochester International

Weather History for KROC - February, 2014

Change the Weather History Date:

Friday, February 7, 2014

  Actual Average Record
Temperature  
Mean Temperature 13 °F 25 °F  
Max Temperature 18 °F 33 °F 54 °F (2017)
Min Temperature 7 °F 18 °F -9 °F (1875)
Degree Days  
Heating Degree Days 52 40  
Month to date heating degree days 303 281  
Since 1 July heating degree days 4171 3985  
Cooling Degree Days 0 0  
Month to date cooling degree days 0 0  
Year to date cooling degree days 0 0  
Moisture  
Dew Point 2 °F    
Average Humidity 65    
Maximum Humidity 80    
Minimum Humidity 49    
Precipitation  
Precipitation T in 0.07 in 2.15 in (1942)
Month to date precipitation 0.88 0.47  
Year to date precipitation 2.11 2.88  
Snow  
Snow 0.10 in 0.80 in 13.00 in (1978)
Month to date snowfall 13.1 5.6  
Since 1 July snowfall 69.9 63.0  
Snow Depth 7.00 in    
Sea Level Pressure  
Sea Level Pressure 30.28 in    
Wind  
Wind Speed 16 mph (WSW)    
Max Wind Speed 29 mph    
Max Gust Speed 38 mph    
Visibility 9 miles    
Events Snow    
T = Trace of Precipitation, MM = Missing Value Source: NWS Daily Summary

Daily Weather History Graph

Daily Weather History Graph

Search for Another Location

Airport or City:

Trip Planner

Search our weather history database for the weather conditions in past years. The results will help you decide how hot, cold, wet, or windy it might be!

Date:

Astronomy

Feb. 07, 2014 Rise Set
Actual Time 7:19 AM EST 5:31 PM EST
Civil Twilight 6:49 AM EST 6:00 PM EST
Nautical Twilight 6:15 AM EST 6:34 PM EST
Astronomical Twilight 5:42 AM EST 7:07 PM EST
Moon 11:39 AM EST (2/7) 1:34 AM EST (2/7)
Length of Visible Light 11h 11m
Length of Day
10h 12m
First Quarter, 59% of the Moon is Illuminated
Feb 7
First Quarter
Feb 14
Full
Feb 22
Last Quarter
Mar 1
New
Mar 8
First Quarter

Hourly Weather History & Observations

Time (EST) Temp. Windchill Dew Point Humidity Pressure Visibility Wind Dir Wind Speed Gust Speed Precip Events Conditions
12:36 AM 17.6 °F 1.7 °F 10.4 °F 73% 30.19 in 2.0 mi West 18.4 mph 26.5 mph 0.00 in Snow Light Snow
12:47 AM 17.6 °F 0.1 °F 10.4 °F 73% 30.19 in 4.0 mi West 23.0 mph 29.9 mph 0.00 in Snow Light Snow
12:54 AM 17.1 °F -1.0 °F 9.0 °F 71% 30.24 in 5.0 mi West 24.2 mph 32.2 mph 0.00 in Snow Light Snow
1:54 AM 15.1 °F -2.0 °F 7.0 °F 70% 30.24 in 8.0 mi WSW 19.6 mph 28.8 mph 0.00 in Snow Light Snow
2:54 AM 12.9 °F -3.4 °F 3.9 °F 67% 30.24 in 9.0 mi WSW 16.1 mph 26.5 mph 0.00 in   Partly Cloudy
3:54 AM 12.0 °F -6.0 °F 3.0 °F 67% 30.26 in 9.0 mi WSW 19.6 mph 25.3 mph 0.00 in Snow Light Snow
4:35 AM 10.4 °F -4.8 °F 3.2 °F 73% 30.23 in 9.0 mi WSW 12.7 mph 21.9 mph 0.00 in Snow Light Snow
4:54 AM 10.0 °F -5.2 °F 3.0 °F 73% 30.27 in 9.0 mi WSW 12.7 mph - 0.00 in Snow Light Snow
5:54 AM 10.0 °F -5.2 °F 1.9 °F 70% 30.29 in 9.0 mi WSW 12.7 mph - 0.00 in Snow Light Snow
6:54 AM 10.0 °F -5.9 °F 1.9 °F 70% 30.30 in 8.0 mi WSW 13.8 mph - 0.00 in Snow Light Snow
7:54 AM 10.0 °F -5.9 °F 1.0 °F 67% 30.31 in 9.0 mi West 13.8 mph 26.5 mph 0.00 in Snow Light Snow
8:54 AM 10.0 °F -6.5 °F 1.0 °F 67% 30.31 in 9.0 mi WSW 15.0 mph - 0.00 in Snow Light Snow
9:54 AM 10.0 °F -7.1 °F -0.0 °F 64% 30.32 in 9.0 mi WSW 16.1 mph 25.3 mph 0.00 in Snow Light Snow
9:56 AM 10.4 °F -6.0 °F -0.4 °F 62% 30.28 in 9.0 mi West 15.0 mph 25.3 mph 0.00 in Snow Light Snow
10:29 AM 10.4 °F -7.2 °F -0.4 °F 62% 30.27 in 10.0 mi WSW 17.3 mph 21.9 mph 0.00 in   Partly Cloudy
10:54 AM 12.0 °F -4.5 °F -0.0 °F 59% 30.32 in 10.0 mi WSW 16.1 mph - 0.00 in   Partly Cloudy
11:54 AM 12.9 °F -3.4 °F -0.0 °F 56% 30.30 in 10.0 mi WSW 16.1 mph - N/A   Scattered Clouds
12:54 PM 15.1 °F 2.5 °F 1.0 °F 54% 30.27 in 10.0 mi WSW 10.4 mph 18.4 mph N/A   Scattered Clouds
1:54 PM 16.0 °F 1.1 °F 1.0 °F 52% 30.25 in 10.0 mi WSW 15.0 mph - N/A   Overcast
2:54 PM 17.1 °F 1.5 °F 1.0 °F 50% 30.25 in 10.0 mi West 17.3 mph 21.9 mph N/A   Overcast
3:54 PM 17.1 °F 0.1 °F 1.9 °F 52% 30.26 in 10.0 mi WSW 20.7 mph 25.3 mph N/A   Overcast
4:54 PM 16.0 °F -0.9 °F -0.0 °F 49% 30.28 in 10.0 mi WSW 19.6 mph 28.8 mph N/A   Scattered Clouds
5:54 PM 12.9 °F -5.3 °F -2.0 °F 51% 30.30 in 10.0 mi West 20.7 mph 31.1 mph N/A   Scattered Clouds
6:54 PM 12.0 °F -6.9 °F -2.0 °F 53% 30.30 in 10.0 mi WSW 21.9 mph 27.6 mph N/A   Clear
7:54 PM 10.9 °F -6.5 °F -0.9 °F 59% 30.30 in 10.0 mi WSW 17.3 mph 26.5 mph N/A   Clear
8:54 PM 10.0 °F -7.1 °F -0.9 °F 61% 30.31 in 10.0 mi WSW 16.1 mph 25.3 mph N/A   Clear
9:54 PM 10.0 °F -5.2 °F -0.9 °F 61% 30.31 in 10.0 mi WSW 12.7 mph - N/A   Clear
10:54 PM 9.0 °F -6.6 °F -0.0 °F 67% 30.32 in 10.0 mi WSW 12.7 mph - N/A   Clear
11:54 PM 9.0 °F -6.6 °F -0.9 °F 64% 30.31 in 10.0 mi WSW 12.7 mph - N/A   Clear